DMSP 5D-2 F13 DEB, 40579

Orbit data source: Space-Track

DMSP 5D-2 F13 DEB, 40579 is space debris in SSO originally from a launch on Fri, 24 Mar 1995 UTC launched from the Air Force Western Test Range (AFWTR). Debris objects in space refer to the collection of defunct objects orbiting the Earth. Examples of debris include non-operational satellites, rocket bodies, and fragments generated from explosions, collisions, or faulty payload assembly.

Loading next visibility...
DMSP 5D-2 F13 DEB details
Identifier
40579, 1995-015EN
Orbit
SSO
Last TLE update13 hours ago
Origin
Flag of USUSAF SMC (US)
ManufacturerUnknown
MissionSpacecraft
Bus & MotorUnknown
MassUnknown
Launch date (UTC)
1995-03-24 (30 years ago)
Launch vehicleUnknown
Launch site
Air Force Western Test Range (AFWTR)
Object type
Payload
Rocket body
Debris
Shape & HBRUnknown
Radar Cross SectionSmall (<0.1 m²)

Expand to show TLE details & history

TLE from 13 hours ago
0 DMSP 5D-2 F13 DEB
1 40579U 95015EN  24348.62515922  .00029813  00000-0  48960-2 0  9990
2 40579  98.5044  43.9741 0039884 190.4687 169.5691 14.70038204512725
Epoch: 2024-12-13T15:00Z
Definitive object data (Epoch: 2024-12-13T15:00:13.756Z)
Latitude-0.00008°
Longitude96.12834°
Altitude691.556 km
Speed7.496 km/s
True Right ascension02h 55m 53s
True Declination0° 00' 00"
Sunlit
Object was in full shadow at TLE epoch
Visualization TLE readout
Latitude2.7913°
Longitude96.28074°
Altitude691.439 km
Speed7.496 km/s
Apparent Right ascension03h 37m 44s
Apparent Declination-59° 17' 41"
Sunlit
Object is in full shadow
Visualization observer readout
Local Sidereal Time02:37:56
Azimuth172.313° S
Elevation-9.981°
Doppler factor1
Orbital elements
Apogee altitude686.091 km
Perigee altitude629.965 km
Semi-major axis7,036.165 km
Eccentricity0.0039884
Inclination98.5044°
RAAN43.9741°
Arg. of periapsis190.4687°
True anomaly169.65144°
Mean anomaly169.5691°
Eccentric anomaly169.61031°
Mean motion3.67739 °/min
BSTAR0.004896
Orbital period97.9 mins
Loading maneuver chart data...

DMSP 5D-2 F13 DEB Visibility forecast

Observer location: undefined°, undefined

Span
Click to sort rows by Start time (UTC) header in descending order
Start Az.
Max El. time (UTC)
Max El. Az.
Max El.
End time (UTC)
End Az.
8 mins2024-12-14 04:11:06.752Z181.145° SSW2024-12-14 04:15:06.752Z253.941° W40.041°2024-12-14 04:19:06.752Z336.182° NNW
6 mins2024-12-14 16:06:06.752Z45.548° ENE2024-12-14 16:09:06.752Z101.623° ESE25.223°2024-12-14 16:12:06.752Z151.909° SSE
6 mins2024-12-14 17:43:06.752Z337.612° N2024-12-14 17:46:06.752Z282.542° WNW22.697°2024-12-14 17:49:06.752Z238.703° WSW
6 mins2024-12-15 03:06:06.752Z110.79° ESE2024-12-15 03:08:06.752Z73.646° E25.352°2024-12-15 03:12:06.752Z10.829° NNE
|